Home > Products > State Listing > Guam Data
Latest:
 RWRGUM |  RWRPQ |
  [top]

000
ASGM40 PGUM 300010
RWRGUM
WEATHER ROUNDUP FOR THE MARIANAS
NATIONAL WEATHER SERVICE TIYAN GU
1000 AM CHST FRI JAN 30 2015

GUZ001>004-300100-
MARIANA ISLANDS-

CITY           SKY/WX    TMP DP  RH WIND       PRES   REMARKS
GUAM AIRPORT   MOSUNNY   84  72  65 NE16      29.90R
ANDERSEN AFB   MOSUNNY   82  73  74 NE16      29.90S
ROTA AIRPORT   NOT AVBL
TINIAN AP      NOT AVBL
SAIPAN AP      MOSUNNY   82  73  74 E18G26    29.91R

$$



  [top]

000
ASPQ40 PGUM 300010
RWRPQ
WEATHER ROUNDUP FOR THE MARIANAS AND MICRONESIA
NATIONAL WEATHER SERVICE TIYAN GU
1000 AM CHST FRI JAN 30 2015

GUZ001>004-300100-
MARIANA ISLANDS-

CITY           SKY/WX    TMP DP  RH WIND       PRES   REMARKS
GUAM AIRPORT   MOSUNNY   84  72  65 NE16      29.90R
ANDERSEN AFB   MOSUNNY   82  73  74 NE16      29.90S
ROTA AIRPORT   NOT AVBL
TINIAN AP      NOT AVBL
SAIPAN AP      MOSUNNY   82  73  74 E18G26    29.91R

$$

PMZ161-300100-
REPUBLIC OF PALAU-

CITY           SKY/WX    TMP DP  RH WIND       PRES   REMARKS
KOROR AP       PTSUNNY   84  77  79 NE8       29.87R HX  94
KOROR WSO      NOT AVBL

$$

PMZ171>174-300100-
FEDERATED STATES OF MICRONESIA-

CITY           SKY/WX    TMP DP  RH WIND       PRES   REMARKS
YAP AIRPORT    PTSUNNY   84  77  79 NE8       29.86R HX  94
CHUUK AP       NOT AVBL
POHNPEI AP     CLOUDY    84  77  79 E13       29.74F HX  94
POHNPEI WSO    NOT AVBL
KOSRAE AP      NOT AVBL

$$

PMZ181-300100-
REPUBLIC OF THE MARSHALL ISLANDS-

CITY           SKY/WX    TMP DP  RH WIND       PRES   REMARKS
KWAJALEIN AP   MOSUNNY   86  68  54 E20G26    29.81F
MAJURO AP      NOT AVBL
MAJURO WSO     NOT AVBL

$$





000
ASPQ40 PGUM 300010
RWRPQ
WEATHER ROUNDUP FOR THE MARIANAS AND MICRONESIA
NATIONAL WEATHER SERVICE TIYAN GU
1000 AM CHST FRI JAN 30 2015

GUZ001>004-300100-
MARIANA ISLANDS-

CITY           SKY/WX    TMP DP  RH WIND       PRES   REMARKS
GUAM AIRPORT   MOSUNNY   84  72  65 NE16      29.90R
ANDERSEN AFB   MOSUNNY   82  73  74 NE16      29.90S
ROTA AIRPORT   NOT AVBL
TINIAN AP      NOT AVBL
SAIPAN AP      MOSUNNY   82  73  74 E18G26    29.91R

$$

PMZ161-300100-
REPUBLIC OF PALAU-

CITY           SKY/WX    TMP DP  RH WIND       PRES   REMARKS
KOROR AP       PTSUNNY   84  77  79 NE8       29.87R HX  94
KOROR WSO      NOT AVBL

$$

PMZ171>174-300100-
FEDERATED STATES OF MICRONESIA-

CITY           SKY/WX    TMP DP  RH WIND       PRES   REMARKS
YAP AIRPORT    PTSUNNY   84  77  79 NE8       29.86R HX  94
CHUUK AP       NOT AVBL
POHNPEI AP     CLOUDY    84  77  79 E13       29.74F HX  94
POHNPEI WSO    NOT AVBL
KOSRAE AP      NOT AVBL

$$

PMZ181-300100-
REPUBLIC OF THE MARSHALL ISLANDS-

CITY           SKY/WX    TMP DP  RH WIND       PRES   REMARKS
KWAJALEIN AP   MOSUNNY   86  68  54 E20G26    29.81F
MAJURO AP      NOT AVBL
MAJURO WSO     NOT AVBL

$$




000
ASGM40 PGUM 300010
RWRGUM
WEATHER ROUNDUP FOR THE MARIANAS
NATIONAL WEATHER SERVICE TIYAN GU
1000 AM CHST FRI JAN 30 2015

GUZ001>004-300100-
MARIANA ISLANDS-

CITY           SKY/WX    TMP DP  RH WIND       PRES   REMARKS
GUAM AIRPORT   MOSUNNY   84  72  65 NE16      29.90R
ANDERSEN AFB   MOSUNNY   82  73  74 NE16      29.90S
ROTA AIRPORT   NOT AVBL
TINIAN AP      NOT AVBL
SAIPAN AP      MOSUNNY   82  73  74 E18G26    29.91R

$$





000
ASGM40 PGUM 292310
RWRGUM
WEATHER ROUNDUP FOR THE MARIANAS
NATIONAL WEATHER SERVICE TIYAN GU
900 AM CHST FRI JAN 30 2015

GUZ001>004-300000-
MARIANA ISLANDS-

CITY           SKY/WX    TMP DP  RH WIND       PRES   REMARKS
GUAM AIRPORT   SUNNY     82  73  74 NE9       29.89R
ANDERSEN AFB   LGT RAIN  79  73  83 NE12      29.90R
ROTA AIRPORT   NOT AVBL
TINIAN AP      NOT AVBL
SAIPAN AP      MOSUNNY   81  72  74 E17       29.90R

$$




000
ASGM40 PGUM 292310
RWRGUM
WEATHER ROUNDUP FOR THE MARIANAS
NATIONAL WEATHER SERVICE TIYAN GU
900 AM CHST FRI JAN 30 2015

GUZ001>004-300000-
MARIANA ISLANDS-

CITY           SKY/WX    TMP DP  RH WIND       PRES   REMARKS
GUAM AIRPORT   SUNNY     82  73  74 NE9       29.89R
ANDERSEN AFB   LGT RAIN  79  73  83 NE12      29.90R
ROTA AIRPORT   NOT AVBL
TINIAN AP      NOT AVBL
SAIPAN AP      MOSUNNY   81  72  74 E17       29.90R

$$





000
ASPQ40 PGUM 292310
RWRPQ
WEATHER ROUNDUP FOR THE MARIANAS AND MICRONESIA
NATIONAL WEATHER SERVICE TIYAN GU
900 AM CHST FRI JAN 30 2015

GUZ001>004-300000-
MARIANA ISLANDS-

CITY           SKY/WX    TMP DP  RH WIND       PRES   REMARKS
GUAM AIRPORT   SUNNY     82  73  74 NE9       29.89R
ANDERSEN AFB   LGT RAIN  79  73  83 NE12      29.90R
ROTA AIRPORT   NOT AVBL
TINIAN AP      NOT AVBL
SAIPAN AP      MOSUNNY   81  72  74 E17       29.90R

$$

PMZ161-300000-
REPUBLIC OF PALAU-

CITY           SKY/WX    TMP DP  RH WIND       PRES   REMARKS
KOROR AP       PTSUNNY   82  77  83 NE8       29.85R HX  91
KOROR WSO      NOT AVBL

$$

PMZ171>174-300000-
FEDERATED STATES OF MICRONESIA-

CITY           SKY/WX    TMP DP  RH WIND       PRES   REMARKS
YAP AIRPORT    PTSUNNY   81  77  89 VRB6      29.84R
CHUUK AP       CLOUDY    84  75  74 NE9       29.81R HX  92
POHNPEI AP     CLOUDY    84  77  79 E12       29.76F HX  94
POHNPEI WSO    NOT AVBL
KOSRAE AP      LGT RAIN  79  75  89 E8        29.80R

$$

PMZ181-300000-
REPUBLIC OF THE MARSHALL ISLANDS-

CITY           SKY/WX    TMP DP  RH WIND       PRES   REMARKS
KWAJALEIN AP   MOSUNNY   84  68  58 E22       29.82S
MAJURO AP      NOT AVBL
MAJURO WSO     MOSUNNY   86  79  79 NE10      29.76F HX  99

$$





000
ASPQ40 PGUM 292310
RWRPQ
WEATHER ROUNDUP FOR THE MARIANAS AND MICRONESIA
NATIONAL WEATHER SERVICE TIYAN GU
900 AM CHST FRI JAN 30 2015

GUZ001>004-300000-
MARIANA ISLANDS-

CITY           SKY/WX    TMP DP  RH WIND       PRES   REMARKS
GUAM AIRPORT   SUNNY     82  73  74 NE9       29.89R
ANDERSEN AFB   LGT RAIN  79  73  83 NE12      29.90R
ROTA AIRPORT   NOT AVBL
TINIAN AP      NOT AVBL
SAIPAN AP      MOSUNNY   81  72  74 E17       29.90R

$$

PMZ161-300000-
REPUBLIC OF PALAU-

CITY           SKY/WX    TMP DP  RH WIND       PRES   REMARKS
KOROR AP       PTSUNNY   82  77  83 NE8       29.85R HX  91
KOROR WSO      NOT AVBL

$$

PMZ171>174-300000-
FEDERATED STATES OF MICRONESIA-

CITY           SKY/WX    TMP DP  RH WIND       PRES   REMARKS
YAP AIRPORT    PTSUNNY   81  77  89 VRB6      29.84R
CHUUK AP       CLOUDY    84  75  74 NE9       29.81R HX  92
POHNPEI AP     CLOUDY    84  77  79 E12       29.76F HX  94
POHNPEI WSO    NOT AVBL
KOSRAE AP      LGT RAIN  79  75  89 E8        29.80R

$$

PMZ181-300000-
REPUBLIC OF THE MARSHALL ISLANDS-

CITY           SKY/WX    TMP DP  RH WIND       PRES   REMARKS
KWAJALEIN AP   MOSUNNY   84  68  58 E22       29.82S
MAJURO AP      NOT AVBL
MAJURO WSO     MOSUNNY   86  79  79 NE10      29.76F HX  99

$$




    US Dept of Commerce
    National Oceanic and Atmospheric Administration
    National Weather Service
    1325 East West Highway
    Silver Spring, MD 20910
    Page Author: NWS Internet Services Team
Disclaimer
Information Quality
Credits
Glossary
Privacy Policy
Freedom of Information Act (FOIA)
About Us
Career Opportunities